Location: Boiro
(42.6475°N, 8.8834°W)
Time: 12:07:44
(UTC+01:00)

Altair - Pass Details

Date: 30 November 2021
Orbit: 1501 x 1683 km, 47.2° (Epoch: 21 January)

Event Time Altitude Azimuth Distance (km) Brightness Sun altitude
Rises 19:59:03 0° 263° (W) 4,723 11.6 -20.7°
Reaches altitude 10° 20:02:11 10° 265° (W) 3,719 10.7 -21.3°
Maximum altitude 20:11:31 70° 350° (N) 1,591 7.5 -23.0°
Enters shadow 20:15:43 37° 63° (ENE) 2,195 7.8 -23.8°
